Time,TemperatureF,DewpointF,PressureIn,WindDirection,WindDirectionDegrees,WindSpeedMPH,WindSpeedGustMPH,Humidity,HourlyPrecipIn,Conditions,Clouds,dailyrainin,SolarRadiationWatts/m^2,SoftwareType,DateUTC
2013-02-25 00:01:00,52.0,18.0,-100.00,SW,231,6.0,8.0,26,0.00,,,0.00,0.000000,,2013-02-25 08:01:00,
2013-02-25 00:11:00,52.0,18.0,-100.00,SW,231,6.0,8.0,26,0.00,,,0.00,0.000000,,2013-02-25 08:11:00,
2013-02-25 00:21:00,52.0,18.0,-100.00,SW,231,6.0,8.0,26,0.00,,,0.00,0.000000,,2013-02-25 08:21:00,
2013-02-25 00:52:00,51.0,17.0,-100.00,SW,231,5.0,8.0,26,0.00,,,0.00,0.000000,,2013-02-25 08:52:00,
2013-02-25 01:01:00,51.0,17.0,-100.00,SW,231,5.0,8.0,26,0.00,,,0.00,0.000000,,2013-02-25 09:01:00,
2013-02-25 01:12:00,51.0,17.0,-100.00,SW,231,5.0,8.0,26,0.00,,,0.00,0.000000,,2013-02-25 09:12:00,
2013-02-25 01:21:00,51.0,17.0,-100.00,SW,231,5.0,8.0,26,0.00,,,0.00,0.000000,,2013-02-25 09:21:00,
2013-02-25 01:52:00,51.0,18.0,-100.00,NW,306,2.0,7.0,27,0.00,,,0.00,0.000000,,2013-02-25 09:52:00,
2013-02-25 02:01:00,51.0,18.0,-100.00,NW,306,2.0,7.0,27,0.00,,,0.00,0.000000,,2013-02-25 10:01:00,
2013-02-25 02:11:00,51.0,18.0,-100.00,NW,306,2.0,7.0,27,0.00,,,0.00,0.000000,,2013-02-25 10:11:00,
2013-02-25 02:21:00,51.0,18.0,-100.00,NW,306,2.0,7.0,27,0.00,,,0.00,0.000000,,2013-02-25 10:21:00,
2013-02-25 02:52:00,49.0,18.0,-100.00,WNW,291,0.0,6.0,29,0.00,,,0.00,0.000000,,2013-02-25 10:52:00,
2013-02-25 03:01:00,49.0,18.0,-100.00,WNW,291,0.0,6.0,29,0.00,,,0.00,0.000000,,2013-02-25 11:01:00,
2013-02-25 03:11:00,49.0,18.0,-100.00,WNW,291,0.0,6.0,29,0.00,,,0.00,0.000000,,2013-02-25 11:11:00,
2013-02-25 03:21:00,49.0,18.0,-100.00,WNW,291,0.0,6.0,29,0.00,,,0.00,0.000000,,2013-02-25 11:21:00,
2013-02-25 03:52:00,48.0,17.0,-100.00,WNW,282,2.0,4.0,29,0.00,,,0.00,0.000000,,2013-02-25 11:52:00,
2013-02-25 04:01:00,48.0,17.0,-100.00,WNW,282,2.0,4.0,29,0.00,,,0.00,0.000000,,2013-02-25 12:01:00,
2013-02-25 04:11:00,48.0,17.0,-100.00,WNW,282,2.0,4.0,29,0.00,,,0.00,0.000000,,2013-02-25 12:11:00,
2013-02-25 04:55:00,47.0,21.0,-100.00,SSW,204,3.0,6.0,35,0.00,,,0.00,0.000000,,2013-02-25 12:55:00,
2013-02-25 05:02:00,47.0,21.0,-100.00,SSW,204,3.0,6.0,35,0.00,,,0.00,0.000000,,2013-02-25 13:02:00,
2013-02-25 05:12:00,47.0,21.0,-100.00,SSW,204,3.0,6.0,35,0.00,,,0.00,0.000000,,2013-02-25 13:12:00,
2013-02-25 05:21:00,47.0,21.0,-100.00,SSW,204,3.0,6.0,35,0.00,,,0.00,0.000000,,2013-02-25 13:21:00,
2013-02-25 05:52:00,47.0,22.0,-100.00,West,265,3.0,6.0,37,0.00,,,0.00,0.000000,,2013-02-25 13:52:00,
2013-02-25 06:02:00,47.0,22.0,-100.00,West,265,3.0,6.0,37,0.00,,,0.00,0.000000,,2013-02-25 14:02:00,
2013-02-25 06:21:00,47.0,22.0,-100.00,West,265,3.0,6.0,37,0.00,,,0.00,0.000000,,2013-02-25 14:21:00,
2013-02-25 06:52:00,47.0,25.0,-100.00,West,259,7.0,10.0,42,0.00,,,0.00,0.000000,,2013-02-25 14:52:00,
2013-02-25 07:02:00,47.0,25.0,-100.00,West,259,7.0,10.0,42,0.00,,,0.00,0.000000,,2013-02-25 15:02:00,
2013-02-25 07:11:00,47.0,25.0,-100.00,West,259,7.0,10.0,42,0.00,,,0.00,0.000000,,2013-02-25 15:11:00,
2013-02-25 07:21:00,47.0,25.0,-100.00,West,259,7.0,10.0,42,0.00,,,0.00,0.000000,,2013-02-25 15:21:00,
2013-02-25 07:52:00,47.0,24.0,-100.00,West,259,11.0,15.0,40,0.00,,,0.00,22.000000,,2013-02-25 15:52:00,
2013-02-25 08:01:00,47.0,24.0,-100.00,West,259,11.0,15.0,40,0.00,,,0.00,22.000000,,2013-02-25 16:01:00,
2013-02-25 08:11:00,47.0,24.0,-100.00,West,259,11.0,15.0,40,0.00,,,0.00,22.000000,,2013-02-25 16:11:00,
2013-02-25 08:21:00,47.0,24.0,-100.00,West,259,11.0,15.0,40,0.00,,,0.00,22.000000,,2013-02-25 16:21:00,
2013-02-25 08:52:00,49.0,32.0,-100.00,WSW,243,10.0,15.0,51,0.00,,,0.00,160.000000,,2013-02-25 16:52:00,
2013-02-25 09:01:00,49.0,32.0,-100.00,WSW,243,10.0,15.0,51,0.00,,,0.00,160.000000,,2013-02-25 17:01:00,
2013-02-25 09:11:00,49.0,32.0,-100.00,WSW,243,10.0,15.0,51,0.00,,,0.00,160.000000,,2013-02-25 17:11:00,
2013-02-25 09:21:00,49.0,32.0,-100.00,WSW,243,10.0,15.0,51,0.00,,,0.00,160.000000,,2013-02-25 17:21:00,
2013-02-25 09:52:00,51.0,33.0,-100.00,West,270,10.0,15.0,50,0.00,,,0.00,359.000000,,2013-02-25 17:52:00,
2013-02-25 10:01:00,51.0,33.0,-100.00,West,270,10.0,15.0,50,0.00,,,0.00,359.000000,,2013-02-25 18:01:00,
2013-02-25 10:12:00,51.0,33.0,-100.00,West,270,10.0,15.0,50,0.00,,,0.00,359.000000,,2013-02-25 18:12:00,
2013-02-25 10:21:00,51.0,33.0,-100.00,West,270,10.0,15.0,50,0.00,,,0.00,359.000000,,2013-02-25 18:21:00,
2013-02-25 10:52:00,53.0,35.0,-100.00,West,275,13.0,17.0,51,0.00,,,0.00,526.000000,,2013-02-25 18:52:00,
2013-02-25 11:01:00,53.0,35.0,-100.00,West,275,13.0,17.0,51,0.00,,,0.00,526.000000,,2013-02-25 19:01:00,
2013-02-25 11:11:00,53.0,35.0,-100.00,West,275,13.0,17.0,51,0.00,,,0.00,526.000000,,2013-02-25 19:11:00,
2013-02-25 11:21:00,53.0,35.0,-100.00,West,275,13.0,17.0,51,0.00,,,0.00,526.000000,,2013-02-25 19:21:00,
2013-02-25 11:52:00,53.0,37.0,-100.00,West,272,14.0,19.0,55,0.00,,,-99.99,641.000000,,2013-02-25 19:52:00,
2013-02-25 12:01:00,53.0,37.0,-100.00,West,272,14.0,19.0,55,0.00,,,-99.99,641.000000,,2013-02-25 20:01:00,
2013-02-25 12:11:00,53.0,37.0,-100.00,West,272,14.0,19.0,55,0.00,,,-99.99,641.000000,,2013-02-25 20:11:00,
2013-02-25 12:21:00,53.0,37.0,-100.00,West,272,14.0,19.0,55,0.00,,,-99.99,641.000000,,2013-02-25 20:21:00,
2013-02-25 12:52:00,56.0,38.0,-100.00,West,277,15.0,21.0,50,0.00,,,0.00,698.000000,,2013-02-25 20:52:00,
2013-02-25 13:01:00,56.0,38.0,-100.00,West,277,15.0,21.0,50,0.00,,,0.00,698.000000,,2013-02-25 21:01:00,
2013-02-25 13:11:00,56.0,38.0,-100.00,West,277,15.0,21.0,50,0.00,,,0.00,698.000000,,2013-02-25 21:11:00,
2013-02-25 13:21:00,56.0,38.0,-100.00,West,277,15.0,21.0,50,0.00,,,0.00,698.000000,,2013-02-25 21:21:00,
2013-02-25 13:52:00,58.0,38.0,-100.00,WNW,284,12.0,20.0,48,0.00,,,0.00,687.000000,,2013-02-25 21:52:00,
2013-02-25 14:01:00,58.0,38.0,-100.00,WNW,284,12.0,20.0,48,0.00,,,0.00,687.000000,,2013-02-25 22:01:00,
2013-02-25 14:11:00,58.0,38.0,-100.00,WNW,284,12.0,20.0,48,0.00,,,0.00,687.000000,,2013-02-25 22:11:00,
2013-02-25 14:21:00,58.0,38.0,-100.00,WNW,284,12.0,20.0,48,0.00,,,0.00,687.000000,,2013-02-25 22:21:00,
2013-02-25 14:52:00,64.0,42.0,-100.00,NNW,331,6.0,14.0,44,0.00,,,0.00,623.000000,,2013-02-25 22:52:00,
2013-02-25 15:01:00,64.0,42.0,-100.00,NNW,331,6.0,14.0,44,0.00,,,0.00,623.000000,,2013-02-25 23:01:00,
2013-02-25 15:11:00,64.0,42.0,-100.00,NNW,331,6.0,14.0,44,0.00,,,0.00,623.000000,,2013-02-25 23:11:00,
2013-02-25 15:22:00,64.0,42.0,-100.00,NNW,331,6.0,14.0,44,0.00,,,0.00,623.000000,,2013-02-25 23:22:00,
2013-02-25 15:52:00,58.0,39.0,-100.00,NNW,338,4.0,11.0,49,-99.99,,,0.00,509.000000,,2013-02-25 23:52:00,
2013-02-25 16:01:00,58.0,39.0,-100.00,NNW,338,4.0,11.0,49,-99.99,,,0.00,509.000000,,2013-02-26 00:01:00,
2013-02-25 16:11:00,58.0,39.0,-100.00,NNW,338,4.0,11.0,49,-99.99,,,0.00,509.000000,,2013-02-26 00:11:00,
2013-02-25 16:21:00,58.0,39.0,-100.00,NNW,338,4.0,11.0,49,-99.99,,,0.00,509.000000,,2013-02-26 00:21:00,
2013-02-25 16:52:00,53.0,38.0,-100.00,NNE,14,2.0,7.0,57,0.00,,,0.00,345.000000,,2013-02-26 00:52:00,
2013-02-25 17:02:00,53.0,38.0,-100.00,NNE,14,2.0,7.0,57,0.00,,,0.00,345.000000,,2013-02-26 01:02:00,
2013-02-25 17:11:00,53.0,38.0,-100.00,NNE,14,2.0,7.0,57,0.00,,,0.00,345.000000,,2013-02-26 01:11:00,
2013-02-25 17:21:00,53.0,38.0,-100.00,NNE,14,2.0,7.0,57,0.00,,,0.00,345.000000,,2013-02-26 01:21:00,
2013-02-25 17:52:00,51.0,35.0,-100.00,NW,317,1.0,7.0,54,0.00,,,0.00,130.000000,,2013-02-26 01:52:00,
2013-02-25 18:01:00,51.0,35.0,-100.00,NW,317,1.0,7.0,54,0.00,,,0.00,130.000000,,2013-02-26 02:01:00,
2013-02-25 18:11:00,51.0,35.0,-100.00,NW,317,1.0,7.0,54,0.00,,,0.00,130.000000,,2013-02-26 02:11:00,
2013-02-25 18:21:00,51.0,35.0,-100.00,NW,317,1.0,7.0,54,0.00,,,0.00,130.000000,,2013-02-26 02:21:00,
2013-02-25 18:52:00,48.0,33.0,-100.00,NNE,20,2.0,7.0,55,0.00,,,0.00,13.000000,,2013-02-26 02:52:00,
2013-02-25 19:01:00,48.0,33.0,-100.00,NNE,20,2.0,7.0,55,0.00,,,0.00,13.000000,,2013-02-26 03:01:00,
2013-02-25 19:11:00,48.0,33.0,-100.00,NNE,20,2.0,7.0,55,0.00,,,0.00,13.000000,,2013-02-26 03:11:00,
2013-02-25 19:21:00,48.0,33.0,-100.00,NNE,20,2.0,7.0,55,0.00,,,0.00,13.000000,,2013-02-26 03:21:00,
2013-02-25 19:52:00,47.0,28.0,-100.00,NW,317,4.0,7.0,48,0.00,,,0.00,0.000000,,2013-02-26 03:52:00,
2013-02-25 20:01:00,47.0,28.0,-100.00,NW,317,4.0,7.0,48,0.00,,,0.00,0.000000,,2013-02-26 04:01:00,
2013-02-25 20:11:00,47.0,28.0,-100.00,NW,317,4.0,7.0,48,0.00,,,0.00,0.000000,,2013-02-26 04:11:00,
2013-02-25 20:21:00,47.0,28.0,-100.00,NW,317,4.0,7.0,48,0.00,,,0.00,0.000000,,2013-02-26 04:21:00,
2013-02-25 20:52:00,47.0,25.0,-100.00,WNW,300,3.0,6.0,42,0.00,,,0.00,0.000000,,2013-02-26 04:52:00,
2013-02-25 21:01:00,47.0,25.0,-100.00,WNW,300,3.0,6.0,42,0.00,,,0.00,0.000000,,2013-02-26 05:01:00,
2013-02-25 21:11:00,47.0,25.0,-100.00,WNW,300,3.0,6.0,42,0.00,,,0.00,0.000000,,2013-02-26 05:11:00,
2013-02-25 21:21:00,47.0,25.0,-100.00,WNW,300,3.0,6.0,42,0.00,,,0.00,0.000000,,2013-02-26 05:21:00,
2013-02-25 21:52:00,49.0,24.0,-100.00,WNW,300,5.0,8.0,37,0.00,,,0.00,0.000000,,2013-02-26 05:52:00,
2013-02-25 22:01:00,49.0,24.0,-100.00,WNW,300,5.0,8.0,37,0.00,,,0.00,0.000000,,2013-02-26 06:01:00,
2013-02-25 22:11:00,49.0,24.0,-100.00,WNW,300,5.0,8.0,37,0.00,,,0.00,0.000000,,2013-02-26 06:11:00,
2013-02-25 22:21:00,49.0,24.0,-100.00,WNW,300,5.0,8.0,37,0.00,,,0.00,0.000000,,2013-02-26 06:21:00,
2013-02-25 22:52:00,49.0,18.0,-100.00,WNW,295,4.0,9.0,29,0.00,,,0.00,0.000000,,2013-02-26 06:52:00,
2013-02-25 23:01:00,49.0,18.0,-100.00,WNW,295,4.0,9.0,29,0.00,,,0.00,0.000000,,2013-02-26 07:01:00,
2013-02-25 23:11:00,49.0,18.0,-100.00,WNW,295,4.0,9.0,29,0.00,,,0.00,0.000000,,2013-02-26 07:11:00,
2013-02-25 23:22:00,49.0,18.0,-100.00,WNW,295,4.0,9.0,29,0.00,,,0.00,0.000000,,2013-02-26 07:22:00,
2013-02-25 23:52:00,49.0,20.0,-100.00,WSW,256,6.0,9.0,31,0.00,,,0.00,0.000000,,2013-02-26 07:52:00,